CAPE
0 0 0 0 0 0 0 0 0 0 0 3 0 136 157 483 653 717 146 0 346 869 900 636 349 113 245 388 530 563 470 422 469 263 137 130 147 338 405 480 295 98 0 15 46 79 221 23 186
0 0 0 0 0 0 0 0 0 0 0 0 0 0 17 651 832 673 187 80 394 812 779 639 279 261 255 364 405 562 520 474 447 312 148 140 135 315 353 142 0 0 0 89 108 222 145 129 249
0 0 0 0 0 0 0 0 0 0 0 2 0 115 306 1186 771 574 263 317 397 685 912 685 218 241 283 267 350 352 413 336 326 318 183 209 287 286 131 14 0 0 3 112 239 194 119 125 123
0 0 0 0 0 0 0 0 0 0 0 120 0 271 1122 1013 710 401 153 291 272 351 1195 373 170 96 197 293 329 325 260 171 205 257 257 282 296 116 0 0 0 0 89 195 316 160 108 178 109
0 0 0 0 0 0 0 0 0 0 163 645 300 524 1094 903 742 214 211 222 156 318 926 366 165 74 112 246 322 251 152 133 158 203 210 186 72 0 0 0 0 0 58 137 236 183 118 73 55
0 0 0 0 0 0 0 0 0 0 109 819 837 717 1250 823 454 253 284 195 111 888 484 238 133 101 164 215 215 212 180 168 169 144 53 0 0 0 0 0 0 0 96 123 103 88 60 31 0
0 0 0 0 0 0 2 0 0 0 1 436 913 885 1071 770 368 572 630 342 590 623 518 224 45 106 108 25 58 140 167 145 37 0 0 0 0 0 18 64 40 70 133 93 56 1 0 0 0
0 0 0 0 0 0 0 0 0 0 0 7 571 1144 1114 784 406 767 543 811 827 617 433 177 47 12 6 23 18 32 13 0 0 0 0 0 0 46 107 120 155 163 155 37 1 1 0 0 0
0 0 0 0 0 0 0 0 0 0 0 0 33 382 1065 787 514 629 768 716 770 617 402 196 39 48 37 16 2 0 0 0 0 0 0 0 19 261 464 232 158 125 31 6 0 0 0 0 0
0 0 0 0 0 0 0 0 0 0 0 0 8 485 1235 742 613 608 533 476 640 606 317 237 148 92 73 3 0 0 0 0 0 0 100 332 47 306 328 336 76 3 0 0 1 5 1 0 0
0 0 0 0 0 0 1 0 0 0 5 13 292 529 1056 729 574 721 581 484 404 483 388 348 279 243 34 0 0 1 0 10 18 18 35 90 255 210 379 335 125 3 46 3 5 15 50 38 23
0 0 0 0 0 0 0 0 0 0 49 148 540 888 1016 668 702 495 499 387 169 238 444 403 385 166 97 11 26 35 61 49 56 86 512 263 539 526 453 521 394 291 228 173 122 15 2 0 0
0 0 0 0 0 0 0 0 0 0 76 294 921 1333 1096 962 659 514 387 238 116 70 205 290 251 159 176 94 56 71 120 91 362 300 377 582 831 501 190 640 625 483 396 132 1 0 0 0 0
0 0 0 0 0 0 0 0 0 0 9 162 846 1242 1018 919 798 718 502 260 122 65 128 163 131 167 134 58 93 166 112 305 89 230 349 501 405 280 281 601 458 334 136 12 0 0 0 0 0
0 0 0 0 0 0 0 0 0 0 6 153 671 991 1126 1006 966 843 588 330 200 93 118 125 118 168 108 171 137 51 99 96 92 123 238 291 277 257 224 286 126 35 59 0 0 0 0 0 0
0 0 0 0 0 0 0 0 0 0 26 29 375 710 1234 1095 1033 831 489 355 241 125 133 78 98 128 137 116 89 68 68 66 60 80 67 60 58 68 92 170 231 122 2 0 0 0 0 0 0
0 0 0 0 0 0 0 0 0 0 2 106 183 344 741 1069 1070 798 551 370 204 106 190 113 184 176 130 135 67 37 50 39 27 3 0 0 0 2 11 57 159 83 12 14 9 0 0 0 0
0 0 0 0 0 0 0 0 0 0 3 44 175 226 369 1048 1033 639 417 318 235 331 188 199 187 171 175 103 41 7 11 0 0 0 0 0 0 0 0 2 18 42 33 11 6 0 0 0 0
0 0 0 0 0 0 0 0 0 0 22 30 57 95 244 793 943 442 418 431 297 464 124 222 163 153 173 50 4 1 0 0 0 0 0 0 0 0 0 0 4 7 10 11 0 0 0 0 0
0 0 0 0 0 0 0 0 0 0 0 70 46 112 155 470 899 640 488 347 254 183 80 177 198 157 100 15 3 2 0 0 0 0 0 0 0 0 0 0 2 3 6 5 0 0 0 0 0
0 0 0 0 0 0 0 0 0 0 0 23 105 76 130 366 652 464 639 236 163 128 81 147 207 111 55 24 17 0 0 0 0 0 0 0 0 0 0 0 0 2 3 2 0 0 0 0 0
0 0 0 0 0 0 0 0 0 0 0 0 0 0 24 286 571 387 440 249 256 110 96 180 89 99 115 48 0 0 0 0 0 0 0 0 0 0 0 1 4 4 1 0 0 0 0 0 0
0 0 0 0 0 0 0 0 0 0 0 0 0 0 7 193 783 757 419 288 269 214 158 141 133 142 120 25 0 0 0 0 0 0 0 0 0 0 0 0 3 2 1 0 0 0 0 0 0
0 0 1 0 0 2 0 0 0 0 0 0 0 1 0 259 790 694 497 270 311 323 198 167 123 77 77 0 0 0 0 0 0 0 0 0 0 0 0 0 1 6 9 4 1 0 0 0 0
8 0 5 2 1 15 0 0 0 0 0 0 0 0 1 608 926 359 299 190 200 270 187 224 101 87 7 2 0 0 0 0 0 0 0 0 0 0 0 0 0 0 0 7 14 5 3 0 0
5 0 13 3 0 0 9 0 0 0 0 0 1 9 51 514 498 439 260 186 181 223 272 206 110 78 8 5 0 0 0 0 0 0 0 0 0 0 0 0 0 0 0 0 0 0 4 7 4
19 8 4 0 0 0 0 0 3 0 3 0 0 19 138 319 535 440 292 199 131 124 143 70 145 129 35 13 0 0 0 0 0 0 0 0 0 0 0 0 0 0 0 0 0 0 0 0 0
30 1 0 0 1 1 0 0 0 3 28 0 0 1 199 290 419 419 297 165 119 69 67 114 155 132 53 18 0 0 0 0 0 0 0 0 0 0 0 0 0 0 0 0 0 0 0 0 0
0 17 0 1 4 3 1 1 2 0 0 0 0 0 114 213 328 395 337 177 143 49 38 69 143 86 35 8 0 0 0 0 0 0 0 0 0 0 0 0 0 0 0 0 0 0 0 0 0
0 20 1 26 3 9 9 29 143 44 0 18 1 0 91 318 450 503 389 232 149 92 37 16 63 40 22 0 0 0 0 0 0 0 0 0 0 0 0 0 0 0 0 0 0 0 0 0 0
CIN
0 0 0 0 0 0 0 0 0 0 0 -4 0 -7 -6 -19 -14 -14 -149 0 -52 -21 -22 -48 -82 -121 -45 -16 -3 -4 -13 -26 -20 -42 -49 -65 -61 -8 -5 -5 -17 -29 0 -22 -68 -65 -60 -51 -58
0 0 0 0 0 0 0 0 0 0 0 0 0 0 -35 -7 -77 -116 -184 -194 -57 -15 -11 -30 -81 -65 -40 -4 -2 -1 -5 -10 -13 -34 -66 -54 -48 -5 -7 -29 0 0 0 -57 -63 -59 -79 -83 -54
0 0 0 0 0 0 0 0 0 0 0 -89 0 -68 -4 -16 -82 -109 -182 -131 -73 -22 -1 -26 -93 -63 -33 -13 -2 0 -4 -11 -13 -11 -42 -27 -7 -9 -29 -8 0 0 -2 -53 -50 -61 -79 -72 -52
0 0 0 0 0 0 0 0 0 0 0 -69 -4 -8 -55 -70 -79 -153 -215 -124 -108 -57 -5 -61 -112 -141 -42 -12 -4 -4 -12 -35 -26 -13 -17 -11 -8 -39 0 0 0 0 -46 -39 -29 -48 -57 -34 -29
0 0 0 0 0 0 0 0 0 0 -7 -10 -38 -7 -17 -64 -94 -191 -176 -134 -144 -75 -14 -49 -107 -154 -97 -28 -8 -21 -60 -65 -44 -25 -17 -34 -72 0 0 0 0 0 -61 -52 -28 -28 -27 -25 -31
0 0 0 0 0 0 0 0 0 0 -7 -1 -35 -2 -13 -80 -125 -156 -129 -144 -145 -25 -43 -107 -128 -128 -62 -37 -35 -38 -56 -57 -57 -62 -111 0 0 0 0 0 0 0 -50 -44 -37 -31 -43 -63 0
0 0 0 0 0 0 -14 0 0 0 -5 -2 -3 -2 -22 -74 -121 -87 -100 -105 -59 -45 -46 -107 -192 -98 -78 -150 -113 -57 -58 -85 -147 0 0 0 0 0 -116 -67 -93 -48 -20 -30 -37 0 0 0 0
0 0 0 -6 0 0 0 0 0 0 0 -15 -3 -6 -11 -144 -181 -129 -128 -50 -53 -49 -60 -104 -148 -175 -215 -160 -147 -143 -178 0 0 0 0 0 0 -156 -83 -63 -20 -14 -16 -50 -2 -5 -3 0 0
0 0 0 0 0 0 0 0 0 0 0 0 -26 -3 -5 -159 -179 -144 -121 -82 -44 -49 -53 -95 -141 -117 -140 -155 -76 0 0 0 0 0 0 0 -49 -10 0 -22 -18 -18 -34 -31 0 0 0 0 0
0 0 0 0 0 0 0 0 0 0 0 0 -33 -6 -5 -137 -154 -171 -175 -161 -78 -61 -84 -84 -80 -88 -94 -1 0 0 0 0 0 0 -111 -9 -18 -6 -1 -1 -23 -24 0 0 -15 -48 -46 0 0
0 0 0 0 0 0 -6 0 0 0 -8 -16 -3 -6 -17 -101 -127 -130 -157 -158 -132 -75 -69 -49 -44 -34 -127 0 0 -1 0 -2 0 -32 -21 -65 -2 -1 -3 0 -3 0 -5 -11 -19 -133 -132 -199 -1
0 0 0 0 0 0 0 -3 0 0 -3 -4 -5 -4 -36 -103 -102 -167 -171 -188 -182 -116 -64 -36 -13 -50 -84 -17 -117 -11 -3 -2 -1 -35 -3 -7 -1 0 0 0 0 0 0 0 -6 0 -13 0 0
0 0 0 0 0 0 0 0 0 0 -2 -20 -2 -41 -46 -78 -66 -87 -84 -121 -140 -136 -109 -73 -44 -54 -46 -70 -121 -116 -50 -50 -12 -13 -1 -1 0 -1 -4 0 0 0 0 -3 -28 0 0 0 0
0 0 0 0 0 0 0 0 0 0 -6 -5 -2 -10 -41 -84 -92 -59 -35 -77 -134 -115 -108 -94 -55 -40 -51 -92 -57 -13 -39 -16 -17 -1 0 -1 -2 -7 -5 0 -1 -9 -3 -24 0 0 0 0 0
0 0 0 0 0 0 0 0 0 0 -2 -2 -2 -2 -26 -44 -30 -59 -15 -44 -100 -91 -92 -88 -35 -27 -34 -23 -15 -51 -21 -20 -19 -1 -2 -12 -3 -2 -1 -23 -28 -45 -13 0 0 0 0 0 0
0 0 0 0 0 0 0 0 0 0 -6 -3 -1 -1 -3 -6 -20 -10 -10 -40 -55 -42 -77 -69 -20 -15 -9 -13 -18 -41 -35 -41 -29 -5 -12 -20 -18 -8 -1 -2 -2 -9 0 0 0 0 0 0 0
0 0 0 0 0 0 0 0 0 0 0 -4 -2 -1 -1 -10 0 -11 -8 -34 -49 -19 -36 -24 -3 -3 -6 -2 -23 -72 -25 -31 -35 0 0 0 0 -38 -18 -15 -5 -23 -8 -2 -2 0 0 0 0
0 0 0 0 0 0 0 0 0 0 -5 -5 -4 -3 -2 -2 -4 -14 -28 -18 -19 -7 -19 -7 -4 -4 -1 -11 -48 -29 -89 0 0 0 0 0 0 0 0 0 0 0 -1 -2 -1 0 0 0 0
0 0 0 0 0 0 0 0 0 0 -9 -3 -5 -5 -2 -3 -5 -25 -15 -7 -20 -1 -23 -5 -5 -7 -5 -30 -73 -2 0 0 0 0 0 0 0 0 0 0 -1 -1 0 -1 -1 0 0 0 0
0 0 0 0 0 0 0 0 0 0 0 -4 -5 -4 -3 -4 -5 -2 -4 -20 -41 -48 -45 -9 -1 -10 -25 -45 -24 -2 0 0 0 0 0 0 0 0 0 0 -1 -1 -1 -1 0 0 0 0 0
0 0 0 0 0 0 0 0 0 0 0 -7 -4 -5 -4 -3 -19 -1 -21 -69 -67 -53 -53 -17 0 -33 -67 -11 -23 0 0 0 0 0 0 0 0 0 0 0 0 -1 -1 -1 0 0 0 0 0
0 0 0 0 0 0 0 0 0 0 0 0 -1 0 -7 -2 -13 -12 -30 -57 -67 -52 -11 -18 -2 -28 -13 -9 0 0 0 0 0 0 0 0 0 0 0 -1 -1 -1 -1 0 0 0 0 0 0
0 0 0 0 0 0 0 0 0 0 0 0 0 0 -4 0 -7 -8 -58 -79 -41 -38 -12 -8 -1 -9 -7 -57 0 0 0 0 0 0 0 0 0 0 0 0 0 -1 -1 0 0 0 0 0 0
0 -2 -5 0 0 -1 0 0 0 0 0 0 0 -7 0 0 -2 -25 -39 -48 -18 -23 -16 -2 -10 -33 -53 0 0 0 0 0 0 0 0 0 0 0 0 0 0 -1 -1 -1 -1 0 0 0 0
-9 -5 -14 -7 -8 -12 0 0 0 0 0 0 0 0 -2 -4 -3 -58 -47 -88 -59 -45 -42 0 -43 -36 -150 -97 0 0 0 0 0 0 0 0 0 0 0 0 0 0 0 0 -1 -1 -1 0 0
-13 0 -12 -6 0 0 -7 0 0 0 0 0 -8 -19 0 -29 -24 -31 -104 -132 -139 -66 -38 -13 -35 -52 -164 -172 0 0 0 0 0 0 0 0 0 0 0 0 0 0 0 0 0 0 -1 -1 -1
-13 -18 -11 0 0 0 0 0 -5 0 -5 0 -12 -21 -3 -19 -14 -47 -82 -125 -174 -112 -99 -127 -55 -38 -105 -143 0 0 0 0 0 0 0 0 0 0 0 0 0 0 0 0 0 0 0 0 0
-29 -15 0 -1 -2 -5 0 0 0 -5 -5 0 0 -21 -6 -4 -4 -12 -69 -158 -193 -213 -177 -93 -43 -34 -66 -123 0 0 0 0 0 0 0 0 0 0 0 0 0 0 0 0 0 0 0 0 0
0 -5 0 -9 -8 -15 -4 -8 -6 0 0 0 0 0 -23 -6 -22 -33 -99 -213 -218 -264 -257 -164 -45 -52 -104 -150 0 0 0 0 0 0 0 0 0 0 0 0 0 0 0 0 0 0 0 0 0
-5 -12 -7 -7 -38 -9 -8 -6 -35 -9 0 -14 -84 0 -42 -1 -26 -64 -143 -216 -219 -249 -290 -199 -116 -128 -156 0 0 0 0 0 0 0 0 0 0 0 0 0 0 0 0 0 0 0 0 0 0
Wind_Speed
28 23 25 28 29 28 37 37 27 30 22 14 18 20 19 15 16 14 10 12 16 15 15 16 15 15 14 14 13 14 14 13 13 13 12 11 8 7 9 6 5 9 11 10 10 13 16 21 22
28 25 26 31 34 39 34 31 29 24 22 20 23 21 20 11 11 6 9 14 15 16 17 14 12 12 13 13 13 12 13 14 13 12 12 12 10 8 8 7 6 8 9 10 13 15 18 22 22
25 26 33 35 39 42 39 31 25 28 21 25 21 19 16 13 7 4 9 16 16 16 17 12 11 10 12 12 11 12 12 13 13 13 13 12 11 10 8 8 7 8 10 12 14 16 19 20 21
22 28 35 43 44 38 37 35 24 25 25 24 24 16 12 12 7 5 14 16 15 16 13 12 11 10 11 12 11 11 12 12 13 14 14 12 11 11 10 9 9 10 11 13 15 17 18 19 19
17 31 43 47 48 46 32 35 23 24 26 22 21 14 13 11 7 7 12 14 15 14 11 12 11 11 11 11 11 12 13 13 12 13 13 13 13 12 11 10 11 12 13 14 16 17 18 18 19
26 31 48 55 50 45 40 26 33 31 24 21 23 20 13 8 2 6 8 10 12 11 11 10 9 10 10 10 10 10 11 12 14 14 14 14 13 13 13 12 12 13 14 15 16 17 18 19 20
24 34 49 52 51 48 37 33 38 33 26 23 21 22 13 5 5 5 4 8 9 9 10 10 9 7 7 8 10 10 10 13 15 15 14 14 14 14 13 13 13 13 14 15 16 17 18 19 19
22 33 51 51 52 50 32 29 33 35 30 26 19 22 19 9 8 3 6 1 7 8 7 8 8 8 7 7 7 8 10 12 14 15 17 18 18 17 17 15 14 14 14 15 16 17 17 19 19
20 40 49 54 53 50 42 31 37 33 32 25 21 22 13 10 10 8 5 3 8 7 7 8 9 8 7 7 6 8 9 11 13 15 18 19 18 17 15 14 14 14 15 15 16 17 18 18 18
26 39 53 42 47 45 44 35 36 34 32 28 25 19 9 11 13 11 9 8 9 9 7 7 7 9 8 7 9 9 9 10 12 13 16 16 14 12 15 14 15 15 15 16 16 17 17 17 17
29 43 37 34 47 39 39 35 35 39 35 35 26 21 15 14 14 12 10 10 10 9 8 8 5 4 7 7 11 10 10 8 8 10 11 11 11 12 13 14 15 14 15 15 16 16 15 16 17
37 41 41 47 37 42 44 30 36 42 32 27 24 20 17 17 16 15 13 12 15 11 8 9 9 5 5 6 9 9 7 5 6 7 8 9 10 10 11 12 13 13 13 13 14 15 16 17 18
41 44 43 41 46 39 35 36 33 42 26 20 18 19 21 19 18 15 13 11 12 10 8 9 7 6 5 5 6 5 5 4 6 7 7 8 9 10 11 11 11 11 12 12 14 14 16 17 18
41 43 46 44 41 38 38 37 36 46 35 22 23 22 23 21 20 17 16 13 11 10 8 7 7 5 4 5 4 3 3 6 6 7 7 8 9 10 10 10 11 11 11 12 12 13 15 16 16
46 47 42 50 39 43 31 43 46 43 41 28 26 26 24 26 22 19 17 15 12 11 9 8 8 5 4 2 2 2 4 3 5 7 7 8 9 8 10 10 10 10 10 11 12 13 14 15 16
39 47 53 44 43 37 35 50 39 48 33 37 30 29 26 26 24 24 22 17 13 11 10 9 8 7 6 3 2 1 3 4 5 6 7 7 8 8 8 9 9 10 10 10 11 12 14 15 16
47 51 53 49 43 40 43 51 41 45 52 38 36 32 28 28 26 26 23 16 14 12 9 10 8 8 6 5 4 2 4 4 5 6 7 7 8 8 8 8 9 10 9 9 11 12 13 14 15
49 52 52 50 42 46 45 49 44 39 44 41 37 37 32 27 27 24 21 17 15 10 11 11 9 8 8 8 5 3 4 5 6 7 8 7 8 8 8 8 8 8 10 9 10 13 14 14 15
52 49 49 50 44 42 52 46 42 41 40 44 43 36 36 29 25 23 21 18 16 11 11 11 10 12 12 9 6 5 5 5 6 8 7 7 7 7 7 7 8 8 10 11 12 12 13 13 14
53 56 53 42 42 48 44 52 43 43 49 42 44 46 36 31 25 22 23 19 17 15 14 12 13 16 15 10 8 7 5 5 6 7 7 8 7 7 8 8 9 10 11 11 12 12 11 11 13
50 53 52 46 41 41 43 47 46 45 42 44 44 46 40 34 28 24 21 19 17 17 16 15 22 19 16 11 9 7 7 5 5 5 6 7 7 7 7 8 9 10 9 9 10 10 10 10 10
51 49 49 43 41 50 41 51 53 45 47 45 43 55 49 35 28 27 23 21 17 17 15 21 29 21 18 13 10 6 5 1 2 4 5 7 8 8 7 8 8 9 9 9 10 10 10 10 10
51 44 49 45 45 41 45 51 46 45 47 50 47 55 54 42 29 27 24 19 19 17 14 23 28 26 17 14 10 6 3 1 3 4 6 7 7 7 7 7 8 8 9 9 9 9 9 10 10
43 45 44 45 43 51 47 49 49 45 53 47 45 46 49 36 31 29 25 23 23 18 16 16 16 21 14 11 7 5 3 4 4 5 5 5 6 6 6 6 7 7 8 8 8 8 9 8 8
44 49 44 47 50 50 47 45 50 42 41 49 43 42 41 28 32 29 27 24 24 21 18 18 17 17 14 11 8 5 5 5 4 5 4 4 5 5 5 6 7 7 7 7 8 8 7 7 7
47 50 45 46 49 51 39 51 48 37 26 30 46 44 38 29 28 28 27 25 26 24 20 20 19 17 15 12 9 8 7 4 3 5 3 4 5 5 6 6 7 7 7 7 7 7 6 7 7
41 46 41 39 44 40 44 45 33 36 26 27 42 44 38 33 33 30 27 30 27 24 24 22 21 17 16 13 10 8 7 5 5 3 3 4 5 5 6 6 7 7 7 7 7 8 8 8 8
44 43 47 42 45 45 42 42 44 38 31 27 39 44 35 36 37 37 32 30 25 25 23 21 20 17 15 13 11 9 8 7 4 2 3 4 4 5 5 6 7 7 8 8 7 8 8 9 9
37 50 49 39 34 39 39 38 28 30 36 31 26 25 27 35 37 34 28 32 25 25 24 24 21 18 16 14 11 10 9 7 4 3 1 3 4 5 5 6 6 7 8 8 8 8 8 9 9
36 40 50 36 38 39 30 27 12 16 27 30 27 28 22 27 25 29 27 27 25 25 23 26 23 20 17 14 13 11 8 7 5 3 2 2 4 5 5 6 6 7 7 7 7 8 8 8 8
Wind_Direction
296 301 297 285 272 269 259 257 270 263 285 295 285 278 279 308 288 296 57 68 92 87 98 97 89 83 78 72 65 59 56 52 52 50 44 39 25 16 23 5 358 14 15 8 3 12 18 48 52
287 289 283 271 262 257 260 262 267 269 284 285 277 276 279 301 319 16 47 87 93 94 103 95 87 80 76 73 69 60 58 58 52 50 46 42 34 18 17 7 350 357 360 359 10 15 24 53 52
287 281 268 262 259 256 257 262 271 265 293 271 276 276 283 289 308 15 68 97 95 97 103 93 87 77 75 72 62 59 56 54 52 53 51 45 38 28 9 3 352 352 354 3 11 18 34 46 49
289 274 265 257 255 258 259 260 279 274 275 271 265 278 286 294 291 338 99 100 97 102 91 95 89 82 77 74 68 63 59 56 55 57 57 48 39 30 20 8 4 1 4 10 19 27 35 41 38
280 271 257 255 253 253 265 254 278 273 273 272 263 270 280 280 300 103 101 99 101 100 90 97 90 85 81 75 71 67 66 60 57 57 55 53 48 38 27 18 18 16 22 23 28 32 38 38 35
270 266 255 251 252 252 255 257 261 267 277 270 260 262 272 279 165 126 106 99 101 91 97 98 92 87 81 76 71 66 64 65 67 65 61 58 51 46 39 30 27 27 29 32 35 38 39 38 38
264 263 257 252 251 250 256 254 258 260 266 264 267 254 261 235 162 144 113 106 92 94 105 103 98 89 77 74 73 67 62 68 73 69 64 60 54 47 42 35 33 33 35 35 37 37 37 36 35
267 268 257 251 249 249 258 253 252 255 259 258 259 255 252 207 212 182 140 146 94 111 114 111 104 97 85 73 63 63 66 71 73 72 76 75 70 68 62 52 39 39 39 39 40 41 40 40 37
267 262 256 250 250 251 257 258 251 258 255 259 256 264 248 187 177 174 177 165 117 118 121 115 110 102 90 77 67 65 62 65 70 75 87 92 78 77 58 47 50 47 48 48 48 47 49 44 29
254 260 253 259 256 259 257 255 247 250 251 252 249 256 204 184 182 181 177 162 147 129 137 125 117 111 98 86 89 78 75 74 75 76 93 105 57 50 56 58 58 58 55 53 55 59 56 42 29
255 257 266 264 256 261 258 252 248 248 249 247 244 243 209 202 194 190 180 165 167 151 132 133 141 122 109 89 101 89 89 76 67 77 87 45 49 64 55 69 71 66 63 58 55 49 29 21 25
260 262 263 260 265 258 257 251 250 247 250 249 246 228 219 213 204 196 188 171 154 156 144 136 133 133 120 99 105 97 86 52 54 62 10 24 28 56 69 71 76 72 60 55 40 23 17 16 12
261 261 262 262 257 260 259 251 250 241 243 250 246 225 226 218 215 209 205 192 176 172 155 151 146 139 122 105 98 75 48 31 29 19 22 42 50 55 70 52 66 51 49 38 27 29 27 26 26
264 262 259 258 256 255 253 248 249 241 241 251 237 236 230 222 215 217 215 196 191 182 173 167 165 150 138 127 88 29 346 335 360 33 25 46 64 55 41 45 49 45 42 33 35 37 30 27 34
261 259 258 251 252 250 252 249 243 239 239 242 237 239 236 230 225 219 209 209 199 190 179 180 170 164 160 185 102 64 329 5 2 357 9 15 21 37 37 42 48 49 41 45 47 40 37 38 40
260 254 251 251 246 248 243 244 241 232 234 240 237 240 236 230 225 227 226 216 211 198 186 178 178 166 168 204 163 330 305 327 357 9 8 10 17 26 33 41 45 47 48 57 48 43 46 51 52
252 248 247 248 244 245 241 243 241 234 238 238 235 238 237 234 229 229 229 214 210 205 187 189 190 182 194 213 238 281 292 334 356 360 359 0 6 14 13 29 55 50 56 48 51 49 57 57 55
248 244 246 244 242 239 242 240 241 234 234 237 233 236 237 232 229 223 221 222 219 216 202 202 203 188 204 224 244 267 285 323 334 341 345 359 359 2 9 15 36 58 60 51 60 71 69 65 59
250 249 246 247 243 240 239 241 240 238 233 232 234 233 236 232 226 220 218 222 219 217 206 211 192 195 218 222 222 251 272 305 328 334 358 359 6 10 18 32 60 59 65 75 77 75 70 58 57
247 244 244 248 246 239 240 238 240 238 236 233 237 233 232 229 220 212 216 218 216 218 213 205 199 208 225 227 238 254 273 304 327 348 1 2 23 37 58 61 75 72 70 71 81 81 67 62 75
246 240 239 241 239 240 238 240 236 235 240 235 236 231 231 229 218 217 211 214 214 219 202 200 216 218 223 227 238 252 272 307 334 5 16 17 23 30 38 67 75 67 58 73 80 79 68 69 68
242 238 238 242 234 232 232 235 232 232 233 230 234 228 231 228 217 219 219 216 208 217 207 225 219 219 222 224 233 232 260 301 357 33 25 41 40 46 53 59 64 50 50 69 85 89 83 73 64
239 237 233 237 234 234 233 235 233 231 230 232 233 229 226 227 212 214 216 215 216 202 209 221 219 219 219 222 232 233 255 326 74 54 71 55 46 38 45 56 59 52 63 74 87 87 89 91 65
235 232 230 234 233 231 231 230 234 226 227 230 228 223 226 217 215 217 223 223 220 204 204 190 182 217 209 206 208 191 165 124 105 86 70 64 58 40 37 34 30 48 60 71 85 88 90 85 62
225 221 220 223 225 229 228 230 230 234 231 226 226 223 221 213 214 217 219 217 216 206 198 183 180 175 200 201 193 179 155 133 115 103 72 66 57 50 48 42 40 46 51 61 75 87 83 83 50
220 217 219 219 221 223 229 227 229 240 229 226 224 224 221 219 216 217 218 215 217 210 193 185 177 181 179 179 174 161 152 150 117 108 57 53 56 59 65 48 51 45 47 50 55 56 52 51 45
217 218 220 223 225 227 229 232 242 236 237 223 223 221 220 219 221 220 221 221 219 208 190 188 181 180 180 178 179 176 167 156 129 105 61 47 56 47 54 49 48 47 48 53 47 34 35 42 44
225 217 215 220 220 224 227 229 228 231 231 226 222 220 217 221 223 222 222 220 215 214 206 196 194 193 185 183 185 185 171 148 143 123 96 77 52 61 62 54 51 56 53 56 43 45 47 51 50
223 212 217 222 228 226 222 227 234 237 232 236 225 212 210 224 220 220 221 222 218 213 214 209 204 198 193 191 190 182 171 161 161 148 117 87 71 72 70 65 65 69 70 63 55 55 59 57 49
217 215 213 223 223 224 228 228 261 251 234 237 231 224 209 221 210 216 217 218 215 216 214 214 210 205 202 200 200 187 192 181 180 194 164 115 100 91 83 78 79 82 80 71 70 71 60 58 56